Location: ??
(34.7252°N, 135.5457°E)
Time: 08:14:01
(UTC+00:00)

USA 32 - Pass Details

Date: 24 September 2020
Orbit: 778 x 782 km, 85.0° (Epoch: 27 September)

Event Time Altitude Azimuth Distance (km) Brightness Sun altitude
Rises 19:02:54 0° 353° (N) 3,272 7.4 -22.2°
Reaches altitude 10° 19:05:16 10° 351° (N) 2,341 6.6 -21.7°
Maximum altitude 19:10:29 70° 269° (W) 832 3.9 -20.7°
Drops below altitude 10° 19:15:41 10° 186° (S) 2,328 6.3 -19.6°
Sets 19:18:02 0° 184° (S) 3,252 7.1 -19.2°
